QPF
0.00 0.00 0.00 0.00 0.00 0.00 0.00 0.00 0.00 0.00 0.00 0.00 0.00 0.00 0.00 0.00 0.00 0.00 0.00 0.00 0.00 0.00 0.00 0.00 0.00 0.00 0.00 0.00 0.00 0.00 0.00 0.00 0.00 0.00 0.00 0.00 0.00 0.00 0.00 0.00 0.00 0.00 0.00
0.00 0.00 0.00 0.00 0.00 0.00 0.00 0.00 0.00 0.00 0.00 0.00 0.00 0.00 0.00 0.00 0.00 0.00 0.00 0.00 0.00 0.00 0.00 0.00 0.00 0.00 0.00 0.00 0.00 0.00 0.00 0.00 0.00 0.00 0.00 0.00 0.00 0.00 0.00 0.00 0.00 0.00 0.00
0.00 0.00 0.00 0.00 0.00 0.00 0.00 0.00 0.00 0.00 0.00 0.00 0.00 0.00 0.00 0.00 0.00 0.00 0.00 0.00 0.00 0.00 0.00 0.00 0.00 0.00 0.00 0.00 0.00 0.00 0.00 0.00 0.00 0.00 0.00 0.00 0.00 0.00 0.00 0.00 0.00 0.00 0.00
0.00 0.00 0.00 0.00 0.00 0.00 0.00 0.00 0.00 0.00 0.00 0.00 0.00 0.00 0.00 0.00 0.00 0.00 0.00 0.00 0.00 0.00 0.00 0.00 0.00 0.00 0.00 0.00 0.00 0.00 0.00 0.00 0.00 0.00 0.01 0.01 0.00 0.00 0.00 0.00 0.00 0.00 0.00
0.00 0.00 0.00 0.00 0.00 0.00 0.00 0.00 0.00 0.00 0.00 0.00 0.00 0.00 0.00 0.00 0.00 0.00 0.00 0.00 0.00 0.00 0.00 0.00 0.00 0.00 0.00 0.00 0.00 0.00 0.00 0.00 0.02 0.04 0.02 0.01 0.00 0.00 0.00 0.00 0.00 0.00 0.00
0.00 0.00 0.00 0.00 0.00 0.00 0.00 0.00 0.00 0.00 0.00 0.00 0.00 0.00 0.00 0.00 0.00 0.00 0.00 0.00 0.00 0.00 0.00 0.00 0.00 0.00 0.00 0.00 0.00 0.00 0.00 0.03 0.05 0.02 0.01 0.00 0.00 0.00 0.00 0.00 0.01 0.01 0.01
0.00 0.00 0.00 0.00 0.00 0.00 0.00 0.00 0.00 0.00 0.00 0.00 0.00 0.00 0.00 0.00 0.00 0.00 0.00 0.00 0.00 0.00 0.00 0.00 0.00 0.00 0.00 0.00 0.00 0.00 0.02 0.03 0.01 0.00 0.00 0.00 0.00 0.00 0.02 0.02 0.01 0.01 0.01
0.00 0.00 0.00 0.00 0.00 0.00 0.00 0.00 0.00 0.00 0.00 0.00 0.00 0.00 0.00 0.00 0.00 0.00 0.00 0.00 0.00 0.00 0.00 0.00 0.00 0.00 0.00 0.00 0.01 0.02 0.01 0.00 0.00 0.00 0.00 0.00 0.01 0.01 0.01 0.00 0.01 0.01 0.00
0.00 0.00 0.00 0.00 0.00 0.00 0.00 0.00 0.00 0.00 0.00 0.00 0.00 0.00 0.00 0.00 0.00 0.00 0.00 0.00 0.00 0.00 0.00 0.00 0.00 0.00 0.00 0.00 0.01 0.01 0.00 0.00 0.00 0.00 0.00 0.00 0.00 0.00 0.00 0.00 0.01 0.01 0.01
0.00 0.00 0.00 0.00 0.00 0.00 0.00 0.00 0.00 0.00 0.00 0.00 0.00 0.00 0.00 0.00 0.00 0.00 0.00 0.00 0.00 0.00 0.00 0.00 0.00 0.00 0.00 0.01 0.00 0.00 0.00 0.00 0.01 0.00 0.00 0.00 0.00 0.00 0.00 0.00 0.00 0.03 0.01
0.00 0.00 0.00 0.00 0.00 0.00 0.00 0.00 0.00 0.00 0.00 0.00 0.00 0.00 0.00 0.00 0.00 0.00 0.00 0.00 0.00 0.00 0.00 0.00 0.00 0.00 0.01 0.00 0.00 0.00 0.00 0.00 0.00 0.00 0.00 0.00 0.00 0.00 0.00 0.00 0.00 0.03 0.05
0.00 0.00 0.00 0.00 0.00 0.00 0.00 0.00 0.00 0.00 0.00 0.00 0.00 0.00 0.00 0.00 0.00 0.00 0.00 0.00 0.00 0.00 0.00 0.00 0.00 0.00 0.00 0.00 0.00 0.00 0.00 0.00 0.00 0.00 0.00 0.00 0.00 0.00 0.00 0.00 0.00 0.00 0.01
0.00 0.00 0.00 0.00 0.00 0.00 0.00 0.00 0.00 0.00 0.00 0.00 0.00 0.00 0.00 0.00 0.00 0.00 0.00 0.00 0.00 0.00 0.00 0.00 0.00 0.00 0.00 0.00 0.00 0.00 0.00 0.00 0.00 0.00 0.00 0.00 0.00 0.00 0.00 0.00 0.00 0.00 0.00
0.00 0.00 0.00 0.00 0.00 0.00 0.00 0.00 0.00 0.00 0.00 0.00 0.00 0.00 0.00 0.00 0.00 0.00 0.00 0.00 0.00 0.00 0.00 0.00 0.00 0.00 0.00 0.00 0.00 0.00 0.00 0.00 0.00 0.00 0.00 0.00 0.00 0.00 0.00 0.00 0.00 0.00 0.00
0.00 0.00 0.00 0.00 0.00 0.00 0.00 0.00 0.00 0.00 0.00 0.00 0.00 0.00 0.00 0.00 0.00 0.00 0.00 0.00 0.00 0.00 0.00 0.00 0.00 0.00 0.00 0.00 0.00 0.00 0.00 0.00 0.00 0.00 0.00 0.00 0.00 0.00 0.00 0.00 0.00 0.00 0.00
0.00 0.00 0.00 0.00 0.00 0.00 0.00 0.00 0.00 0.00 0.00 0.00 0.00 0.00 0.00 0.00 0.00 0.00 0.00 0.00 0.00 0.00 0.00 0.00 0.00 0.00 0.00 0.00 0.00 0.00 0.00 0.00 0.00 0.00 0.00 0.00 0.00 0.00 0.00 0.00 0.00 0.00 0.00
0.00 0.00 0.00 0.00 0.00 0.00 0.00 0.00 0.00 0.00 0.00 0.00 0.00 0.00 0.00 0.00 0.00 0.00 0.00 0.00 0.00 0.00 0.00 0.00 0.00 0.00 0.00 0.00 0.00 0.00 0.00 0.00 0.00 0.00 0.00 0.00 0.01 0.01 0.00 0.00 0.00 0.00 0.00
0.00 0.00 0.00 0.00 0.00 0.00 0.00 0.00 0.00 0.00 0.00 0.00 0.00 0.00 0.00 0.00 0.00 0.00 0.00 0.00 0.00 0.00 0.00 0.00 0.00 0.00 0.00 0.00 0.00 0.00 0.00 0.00 0.00 0.00 0.01 0.01 0.02 0.02 0.01 0.01 0.01 0.01 0.01
0.00 0.00 0.00 0.00 0.00 0.00 0.00 0.00 0.00 0.00 0.00 0.00 0.00 0.00 0.00 0.00 0.00 0.00 0.00 0.00 0.00 0.00 0.00 0.00 0.00 0.00 0.00 0.00 0.00 0.00 0.00 0.01 0.01 0.02 0.01 0.01 0.02 0.03 0.01 0.00 0.01 0.00 0.00
0.00 0.00 0.00 0.00 0.00 0.00 0.00 0.00 0.00 0.00 0.00 0.00 0.00 0.00 0.00 0.00 0.00 0.00 0.00 0.00 0.00 0.00 0.00 0.00 0.00 0.00 0.00 0.00 0.00 0.00 0.00 0.00 0.00 0.01 0.01 0.01 0.02 0.03 0.03 0.02 0.01 0.02 0.01
0.00 0.00 0.00 0.00 0.00 0.00 0.00 0.00 0.00 0.00 0.00 0.00 0.00 0.00 0.00 0.00 0.00 0.00 0.00 0.00 0.00 0.00 0.00 0.00 0.00 0.00 0.00 0.00 0.01 0.00 0.00 0.00 0.01 0.02 0.01 0.01 0.03 0.04 0.02 0.02 0.02 0.01 0.01
0.00 0.00 0.00 0.00 0.00 0.00 0.00 0.00 0.00 0.00 0.00 0.00 0.00 0.00 0.00 0.00 0.00 0.00 0.00 0.00 0.00 0.00 0.00 0.00 0.00 0.00 0.01 0.01 0.01 0.01 0.00 0.00 0.01 0.01 0.01 0.03 0.04 0.03 0.02 0.01 0.01 0.01 0.01
0.00 0.00 0.00 0.00 0.00 0.00 0.00 0.00 0.00 0.00 0.00 0.00 0.00 0.00 0.00 0.00 0.00 0.00 0.00 0.00 0.00 0.00 0.00 0.00 0.00 0.00 0.00 0.01 0.02 0.03 0.03 0.01 0.02 0.02 0.02 0.01 0.01 0.02 0.03 0.04 0.05 0.03 0.00
0.00 0.00 0.00 0.00 0.00 0.00 0.00 0.00 0.00 0.00 0.00 0.00 0.00 0.00 0.00 0.00 0.00 0.00 0.00 0.00 0.00 0.00 0.00 0.00 0.00 0.01 0.01 0.01 0.01 0.02 0.03 0.03 0.03 0.04 0.06 0.10 0.09 0.05 0.05 0.04 0.03 0.01 0.00
0.00 0.00 0.00 0.00 0.00 0.00 0.00 0.00 0.00 0.00 0.00 0.00 0.00 0.00 0.00 0.00 0.00 0.00 0.00 0.00 0.00 0.00 0.00 0.00 0.00 0.01 0.01 0.01 0.02 0.02 0.02 0.02 0.04 0.04 0.04 0.04 0.04 0.03 0.03 0.02 0.01 0.00 0.00
0.00 0.00 0.00 0.00 0.00 0.00 0.00 0.00 0.00 0.00 0.00 0.00 0.00 0.00 0.00 0.00 0.00 0.00 0.00 0.00 0.00 0.00 0.00 0.00 0.00 0.01 0.01 0.01 0.00 0.01 0.01 0.01 0.02 0.02 0.01 0.01 0.02 0.02 0.01 0.00 0.00 0.00 0.00
MSLP
1007.84 1008.99 1009.95 1011.04 1011.67 1012.41 1013.39 1014.40 1015.32 1016.19 1016.91 1017.50 1018.10 1018.45 1018.66 1018.78 1018.89 1018.89 1018.84 1018.86 1018.89 1018.94 1019.05 1019.07 1018.93 1018.73 1018.42 1018.06 1017.76 1017.39 1016.85 1016.37 1014.95 1013.81 1014.05 1013.84 1013.56 1013.06 1012.43 1011.98 1011.62 1011.19 1010.34
1008.15 1009.16 1010.40 1011.27 1011.87 1012.80 1013.93 1014.89 1015.77 1016.48 1017.18 1017.75 1018.23 1018.47 1018.66 1018.88 1018.92 1018.79 1018.69 1018.72 1018.80 1018.80 1018.79 1018.81 1018.69 1018.49 1018.23 1017.85 1017.48 1017.05 1016.59 1016.15 1015.38 1013.74 1013.77 1013.35 1013.00 1012.40 1012.00 1011.50 1011.01 1010.36 1009.47
1008.33 1009.42 1010.49 1011.35 1012.19 1013.27 1014.44 1015.39 1016.23 1016.92 1017.59 1018.07 1018.34 1018.49 1018.73 1019.01 1018.93 1018.83 1018.74 1018.65 1018.61 1018.63 1018.63 1018.63 1018.46 1018.25 1017.85 1017.49 1017.17 1016.66 1016.20 1015.68 1015.17 1014.17 1012.77 1012.76 1012.03 1012.03 1011.26 1010.88 1010.16 1009.49 1008.89
1009.02 1009.80 1010.65 1011.67 1012.78 1013.91 1015.04 1015.88 1016.63 1017.36 1017.88 1018.25 1018.48 1018.72 1018.96 1019.05 1019.03 1018.91 1018.77 1018.50 1018.38 1018.42 1018.51 1018.49 1018.26 1017.99 1017.61 1017.25 1016.78 1016.25 1015.69 1015.15 1014.64 1013.95 1012.85 1012.10 1011.75 1011.25 1010.77 1009.79 1009.16 1008.94 1008.09
1009.42 1010.35 1011.34 1012.39 1013.59 1014.63 1015.60 1016.40 1017.05 1017.67 1018.21 1018.50 1018.74 1018.92 1019.06 1019.06 1019.00 1018.94 1018.50 1018.27 1018.17 1018.11 1018.07 1017.94 1017.72 1017.59 1017.56 1017.25 1016.73 1016.14 1015.59 1015.14 1014.53 1013.64 1012.60 1011.94 1011.24 1010.41 1009.97 1009.61 1008.96 1008.27 1007.33
1010.06 1011.20 1012.28 1013.10 1014.32 1015.31 1016.15 1016.75 1017.38 1018.05 1018.52 1018.82 1018.95 1019.05 1019.05 1019.11 1019.28 1018.95 1018.73 1018.29 1017.99 1017.85 1017.58 1017.39 1017.18 1017.08 1016.80 1016.61 1016.26 1015.96 1015.56 1014.91 1014.11 1013.36 1012.59 1011.80 1010.87 1010.33 1009.92 1009.38 1008.85 1007.89 1006.20
1011.09 1012.14 1012.87 1013.93 1014.90 1015.85 1016.54 1017.08 1017.71 1018.25 1018.71 1018.91 1019.05 1019.08 1019.04 1019.03 1019.12 1018.88 1018.67 1018.26 1017.84 1017.60 1017.44 1017.17 1016.82 1016.54 1016.33 1015.98 1015.84 1015.29 1014.80 1014.28 1013.73 1012.98 1012.05 1011.44 1010.66 1010.29 1010.08 1009.01 1008.42 1007.68 1006.52
1012.06 1012.95 1013.80 1014.62 1015.47 1016.35 1016.82 1017.47 1018.00 1018.50 1018.82 1019.00 1019.07 1019.10 1018.99 1018.92 1019.10 1018.89 1018.61 1017.99 1017.52 1017.30 1017.15 1016.87 1016.49 1016.08 1015.87 1015.69 1015.11 1014.59 1014.13 1013.41 1012.57 1012.25 1011.87 1011.16 1010.69 1010.08 1009.52 1008.84 1008.06 1007.11 1005.91
1012.84 1013.72 1014.51 1015.22 1016.00 1016.63 1017.23 1017.76 1018.35 1018.72 1019.00 1019.10 1019.07 1018.90 1018.82 1018.71 1019.01 1018.85 1018.35 1017.64 1017.18 1016.91 1016.64 1016.29 1016.04 1015.78 1015.62 1015.13 1014.55 1013.93 1013.00 1012.31 1012.00 1011.79 1011.22 1010.47 1009.79 1009.28 1008.91 1008.35 1007.51 1006.72 1005.22
1013.67 1014.40 1015.20 1015.85 1016.45 1017.07 1017.64 1018.16 1018.84 1019.06 1019.13 1019.02 1018.88 1018.85 1018.96 1018.77 1018.71 1018.53 1018.13 1017.53 1016.86 1016.40 1016.07 1015.69 1015.51 1015.40 1014.91 1014.65 1014.05 1013.23 1012.49 1012.03 1011.70 1011.06 1010.15 1009.69 1009.20 1008.58 1008.12 1007.71 1007.14 1006.39 1005.48
1014.48 1015.22 1015.97 1016.62 1017.16 1017.74 1018.26 1018.69 1019.01 1019.09 1019.02 1018.85 1018.72 1018.66 1018.74 1018.64 1018.40 1018.30 1018.03 1017.48 1016.92 1016.41 1015.81 1015.46 1015.14 1014.84 1014.53 1014.08 1013.66 1013.10 1012.52 1011.94 1011.12 1010.41 1009.84 1009.12 1008.48 1007.79 1007.37 1007.17 1006.84 1006.32 1005.19
1015.31 1016.05 1016.79 1017.44 1018.00 1018.32 1018.61 1018.97 1019.14 1019.08 1018.91 1018.78 1018.61 1018.32 1018.27 1018.26 1018.21 1018.08 1017.93 1017.62 1017.10 1016.39 1015.92 1015.29 1014.88 1014.55 1014.23 1013.76 1013.36 1012.90 1012.26 1011.62 1010.86 1010.18 1009.54 1008.74 1008.01 1007.62 1007.15 1006.66 1006.09 1005.45 1004.70
1016.17 1016.96 1017.56 1018.08 1018.50 1018.77 1018.79 1018.98 1019.00 1019.10 1019.00 1018.82 1018.59 1018.31 1018.11 1018.08 1017.97 1017.95 1017.69 1017.14 1016.63 1016.32 1015.73 1015.21 1014.65 1014.30 1013.94 1013.40 1012.96 1012.58 1012.01 1011.27 1010.60 1010.05 1009.38 1008.65 1008.01 1007.25 1006.64 1005.86 1004.95 1004.21 1003.30
1016.82 1017.56 1018.14 1018.45 1018.70 1018.88 1019.07 1019.19 1019.16 1019.17 1019.05 1018.89 1018.66 1018.46 1018.23 1018.06 1017.87 1017.71 1017.28 1016.70 1016.30 1015.73 1015.34 1014.85 1014.37 1014.17 1013.71 1013.25 1012.59 1012.04 1011.55 1011.00 1010.41 1009.81 1009.14 1008.47 1007.68 1006.71 1005.83 1005.13 1004.24 1003.30 1002.37
1017.56 1018.01 1018.30 1018.54 1018.77 1019.02 1019.25 1019.33 1019.28 1019.31 1019.37 1019.17 1018.92 1018.76 1018.44 1018.16 1017.97 1017.92 1017.35 1016.66 1016.15 1015.75 1015.30 1014.61 1014.16 1013.75 1013.31 1012.81 1012.26 1011.76 1011.20 1010.66 1010.21 1009.65 1009.03 1008.24 1007.35 1006.43 1005.43 1004.64 1003.80 1002.83 1001.90
1017.61 1018.03 1018.40 1018.74 1019.00 1019.14 1019.24 1019.23 1019.57 1019.58 1019.50 1019.45 1019.35 1019.15 1018.74 1018.41 1018.09 1017.66 1017.10 1016.47 1016.15 1015.75 1015.25 1014.59 1014.15 1013.78 1013.37 1012.85 1012.29 1011.61 1011.14 1010.49 1009.94 1009.42 1008.73 1007.92 1007.05 1006.19 1005.12 1004.03 1003.34 1002.39 1001.21
1017.87 1018.34 1018.72 1018.87 1019.04 1019.19 1019.34 1019.34 1019.23 1019.13 1019.27 1019.28 1019.21 1019.00 1018.75 1018.42 1017.93 1017.46 1016.74 1016.39 1015.88 1015.69 1015.14 1014.68 1014.35 1013.91 1013.45 1012.94 1012.36 1011.79 1010.90 1010.21 1009.82 1009.07 1008.36 1007.44 1006.61 1005.64 1004.82 1003.66 1002.67 1001.69 1000.49
1018.42 1018.75 1018.85 1019.14 1019.30 1019.45 1019.60 1019.60 1019.48 1019.20 1018.89 1018.71 1018.78 1018.81 1018.44 1018.10 1017.65 1017.01 1016.69 1016.27 1015.68 1015.45 1015.20 1014.74 1014.36 1013.89 1013.38 1012.84 1012.25 1011.54 1010.71 1009.95 1009.31 1008.61 1007.75 1006.94 1006.19 1005.41 1004.28 1003.24 1002.23 1001.26 1000.16
1018.64 1018.99 1019.26 1019.53 1019.74 1019.82 1019.76 1019.67 1019.55 1019.37 1019.12 1018.82 1018.49 1018.16 1018.02 1017.67 1016.96 1016.57 1016.45 1016.27 1015.85 1015.48 1015.06 1014.68 1014.26 1013.76 1013.22 1012.70 1012.09 1011.37 1010.65 1009.75 1008.90 1008.12 1007.30 1006.43 1005.59 1004.85 1003.73 1002.82 1001.78 1000.65 999.69
1019.15 1019.62 1019.76 1019.79 1019.93 1019.86 1019.78 1019.65 1019.48 1019.32 1019.09 1018.74 1018.42 1018.19 1018.00 1017.34 1016.65 1016.38 1016.30 1016.19 1015.86 1015.47 1015.00 1014.54 1014.04 1013.58 1013.10 1012.57 1011.83 1011.08 1010.19 1009.31 1008.44 1007.69 1006.78 1005.91 1005.02 1004.17 1003.18 1002.15 1001.09 1000.05 999.07
1019.66 1019.87 1020.12 1020.03 1020.02 1019.95 1019.81 1019.69 1019.62 1019.44 1019.14 1018.78 1018.44 1018.18 1018.05 1017.50 1017.06 1016.73 1016.34 1016.03 1015.78 1015.38 1014.92 1014.45 1013.94 1013.42 1012.89 1012.24 1011.49 1010.65 1009.83 1008.95 1008.06 1007.22 1006.32 1005.35 1004.41 1003.40 1002.44 1001.46 1000.43 999.51 998.56
1019.87 1020.06 1020.18 1020.22 1020.17 1020.03 1019.90 1019.82 1019.65 1019.42 1019.13 1018.78 1018.36 1018.01 1017.77 1017.47 1017.08 1016.81 1016.44 1016.06 1015.72 1015.34 1014.90 1014.39 1013.80 1013.18 1012.55 1011.83 1011.07 1010.28 1009.42 1008.53 1007.56 1006.71 1005.78 1004.76 1003.74 1002.67 1001.67 1000.66 999.69 998.84 998.06
1020.15 1020.29 1020.41 1020.35 1020.29 1020.17 1020.00 1019.82 1019.64 1019.43 1019.07 1018.74 1018.38 1018.06 1017.72 1017.42 1017.03 1016.78 1016.46 1016.04 1015.62 1015.16 1014.67 1014.14 1013.49 1012.71 1011.97 1011.25 1010.56 1009.88 1009.02 1007.98 1007.10 1006.29 1005.23 1004.04 1002.91 1001.86 1000.90 999.89 999.06 998.51 997.97
1020.54 1020.60 1020.53 1020.44 1020.40 1020.19 1020.01 1019.76 1019.56 1019.35 1019.09 1018.83 1018.53 1018.21 1017.84 1017.54 1017.10 1016.75 1016.41 1015.98 1015.49 1014.95 1014.38 1013.73 1013.03 1012.29 1011.42 1010.61 1009.81 1008.97 1008.23 1007.35 1006.50 1005.30 1004.09 1002.76 1001.71 1001.03 1000.26 999.57 999.01 998.67 998.01
1020.75 1020.68 1020.61 1020.52 1020.41 1020.22 1020.01 1019.75 1019.51 1019.25 1019.03 1018.84 1018.58 1018.31 1017.95 1017.59 1017.19 1016.73 1016.28 1015.78 1015.25 1014.63 1013.84 1013.19 1012.48 1011.67 1010.79 1009.94 1009.09 1008.19 1007.33 1006.23 1004.86 1003.66 1002.65 1002.00 1001.38 1000.79 1000.15 999.63 999.30 998.75 998.14
1020.92 1020.88 1020.74 1020.60 1020.42 1020.28 1020.01 1019.74 1019.47 1019.32 1019.18 1018.92 1018.58 1018.31 1017.99 1017.58 1017.09 1016.59 1016.12 1015.53 1014.90 1014.23 1013.55 1012.69 1011.72 1010.98 1010.09 1009.16 1008.25 1007.44 1006.30 1004.99 1003.90 1002.90 1002.43 1001.89 1001.31 1000.71 1000.28 999.93 999.59 999.06 998.50
Thickness
5614 5606 5601 5595 5591 5585 5577 5567 5559 5551 5543 5537 5529 5523 5518 5514 5509 5505 5502 5497 5491 5485 5478 5470 5464 5458 5453 5448 5442 5435 5431 5425 5432 5439 5417 5405 5394 5382 5374 5360 5347 5336 5329
5601 5598 5590 5585 5581 5573 5563 5555 5547 5540 5533 5526 5519 5514 5509 5503 5499 5496 5492 5487 5479 5473 5465 5458 5450 5444 5437 5431 5425 5419 5413 5407 5405 5414 5401 5390 5374 5361 5347 5336 5319 5307 5305
5595 5591 5584 5579 5572 5562 5552 5544 5535 5528 5521 5514 5509 5505 5499 5492 5489 5485 5480 5475 5468 5460 5452 5443 5437 5429 5423 5417 5409 5404 5398 5392 5383 5382 5388 5370 5360 5335 5327 5309 5302 5295 5292
5583 5582 5577 5569 5560 5550 5540 5532 5524 5516 5509 5504 5499 5493 5487 5482 5477 5473 5468 5463 5456 5447 5437 5428 5422 5415 5408 5401 5395 5388 5381 5373 5363 5354 5353 5347 5329 5317 5302 5298 5295 5287 5289
5576 5571 5564 5556 5546 5537 5528 5521 5513 5505 5498 5493 5488 5482 5477 5472 5467 5461 5457 5451 5443 5435 5426 5418 5411 5401 5391 5383 5376 5368 5358 5347 5337 5328 5320 5313 5305 5300 5290 5284 5284 5284 5286
5566 5558 5549 5545 5534 5525 5517 5510 5502 5493 5488 5481 5477 5472 5467 5461 5452 5448 5441 5437 5431 5423 5416 5407 5399 5391 5383 5371 5360 5347 5334 5321 5311 5301 5292 5286 5286 5280 5278 5276 5274 5278 5289
5550 5543 5540 5530 5521 5512 5505 5499 5491 5484 5477 5472 5467 5461 5456 5449 5440 5435 5429 5424 5418 5410 5401 5393 5386 5378 5367 5356 5343 5330 5315 5299 5286 5280 5277 5271 5271 5267 5266 5269 5269 5270 5275
5538 5531 5523 5516 5508 5500 5495 5487 5481 5474 5468 5462 5456 5450 5444 5438 5429 5423 5416 5412 5406 5398 5389 5380 5371 5362 5350 5336 5325 5312 5297 5283 5276 5267 5261 5260 5258 5260 5260 5262 5264 5268 5273
5523 5517 5510 5504 5497 5490 5484 5478 5471 5464 5457 5451 5445 5440 5434 5429 5417 5410 5405 5402 5396 5388 5378 5367 5357 5345 5330 5318 5306 5293 5285 5274 5263 5257 5256 5258 5257 5255 5254 5256 5258 5260 5269
5511 5505 5499 5493 5487 5481 5474 5467 5457 5450 5445 5440 5436 5430 5422 5415 5407 5400 5395 5391 5387 5379 5369 5356 5342 5327 5313 5296 5284 5277 5272 5264 5258 5257 5259 5255 5254 5253 5251 5249 5249 5252 5255
5499 5493 5487 5481 5476 5469 5461 5453 5446 5441 5436 5432 5427 5421 5412 5405 5399 5391 5383 5377 5369 5360 5351 5338 5324 5309 5293 5280 5269 5262 5259 5259 5258 5256 5254 5253 5252 5252 5250 5246 5242 5241 5247
5488 5482 5475 5468 5460 5455 5449 5442 5436 5432 5428 5422 5416 5411 5404 5396 5387 5378 5368 5359 5349 5341 5330 5318 5304 5290 5277 5268 5261 5257 5255 5253 5253 5251 5249 5249 5249 5245 5243 5241 5238 5239 5239
5476 5468 5461 5455 5449 5444 5439 5434 5429 5422 5417 5412 5406 5401 5394 5385 5376 5365 5354 5346 5337 5324 5312 5299 5286 5275 5267 5262 5258 5253 5250 5250 5248 5246 5243 5242 5240 5240 5239 5240 5240 5241 5243
5465 5458 5451 5446 5440 5435 5429 5423 5418 5412 5407 5401 5396 5389 5382 5373 5363 5353 5344 5336 5324 5312 5296 5284 5273 5265 5261 5257 5254 5252 5249 5246 5244 5242 5239 5237 5236 5237 5237 5237 5239 5242 5245
5454 5448 5443 5438 5432 5425 5418 5412 5407 5401 5394 5389 5383 5375 5368 5359 5349 5336 5327 5318 5306 5292 5279 5272 5265 5261 5257 5254 5251 5248 5247 5244 5240 5236 5233 5232 5232 5233 5234 5234 5235 5238 5241
5448 5441 5435 5428 5421 5416 5410 5405 5394 5388 5381 5374 5366 5358 5350 5340 5331 5321 5310 5298 5285 5273 5265 5262 5258 5255 5251 5248 5246 5244 5242 5241 5238 5234 5231 5231 5231 5231 5233 5235 5234 5236 5241
5439 5431 5424 5419 5413 5407 5400 5393 5388 5381 5371 5361 5352 5342 5333 5324 5315 5305 5294 5279 5270 5262 5258 5255 5251 5248 5245 5243 5242 5240 5241 5240 5235 5233 5231 5231 5231 5231 5231 5234 5236 5238 5243
5426 5420 5416 5409 5402 5396 5389 5382 5376 5370 5363 5354 5343 5331 5321 5310 5300 5291 5277 5266 5261 5255 5252 5250 5246 5245 5242 5241 5240 5239 5239 5237 5234 5232 5231 5231 5229 5228 5231 5233 5234 5236 5241
5418 5411 5404 5397 5390 5384 5378 5372 5365 5358 5350 5343 5334 5323 5309 5294 5284 5274 5264 5257 5252 5250 5249 5248 5246 5244 5242 5240 5239 5238 5236 5235 5233 5231 5230 5230 5229 5228 5231 5232 5234 5238 5243
5406 5398 5392 5386 5380 5375 5369 5362 5355 5347 5338 5330 5320 5309 5295 5282 5271 5261 5254 5249 5247 5247 5248 5247 5246 5244 5242 5240 5239 5239 5238 5236 5234 5231 5231 5230 5229 5229 5230 5232 5235 5239 5244
5394 5387 5380 5376 5371 5365 5359 5352 5343 5333 5324 5314 5303 5290 5275 5265 5255 5249 5246 5246 5245 5246 5247 5247 5245 5244 5242 5242 5242 5241 5239 5238 5235 5233 5232 5232 5231 5231 5231 5233 5236 5240 5246
5385 5379 5373 5367 5361 5355 5348 5339 5330 5320 5310 5300 5287 5272 5258 5249 5244 5240 5241 5244 5245 5245 5246 5246 5246 5246 5246 5246 5245 5244 5242 5241 5240 5237 5235 5235 5234 5235 5236 5238 5242 5246 5250
5376 5369 5363 5357 5350 5342 5335 5327 5317 5306 5296 5283 5270 5255 5245 5238 5237 5238 5240 5243 5245 5246 5247 5248 5249 5251 5252 5251 5250 5248 5247 5247 5245 5242 5240 5241 5242 5243 5244 5247 5250 5251 5253
5365 5359 5353 5347 5339 5332 5323 5315 5304 5291 5279 5265 5251 5241 5235 5232 5235 5238 5241 5244 5246 5248 5250 5251 5253 5255 5256 5257 5256 5256 5255 5254 5253 5253 5253 5256 5257 5254 5254 5254 5254 5253 5257
5356 5350 5344 5337 5329 5320 5310 5300 5289 5277 5264 5250 5240 5233 5231 5232 5236 5240 5244 5247 5249 5251 5255 5256 5259 5261 5262 5263 5264 5264 5264 5266 5269 5269 5269 5265 5262 5260 5259 5259 5257 5260 5263
5346 5340 5333 5326 5317 5307 5297 5286 5274 5261 5248 5238 5233 5231 5232 5235 5240 5244 5247 5251 5253 5256 5258 5262 5265 5267 5269 5271 5273 5273 5275 5280 5281 5282 5277 5274 5270 5268 5265 5263 5262 5265 5267